Tracking 19377 objects as of 11-Dec-2018
HD Live streaming from Space Station
objects crossing your sky now

COSMOS 2526

Track COSMOS 2526 now!


NORAD ID: 43432
Int'l Code: 2018-037A
Perigee: 35,790.2 km
Apogee: 35,798.7 km
Inclination: 0.1 °
Period: 1,436.1 minutes
Semi major axis: 42165 km
RCS: Unknown
Launch date: April 18, 2018
Source: Commonwealth of Independent States (former USSR) (CIS)
Launch site: TYURATAM MISSILE AND SPACE COMPLEX (TTMTR)
aabbcc
Your satellite tracking list
Your tracking list is empty




NASA's NSSDC Master Catalog

Two Line Element Set (TLE):
1 43432U 18037A   18343.94216044 -.00000341  00000-0  00000+0 0  9992
2 43432   0.0561 113.6138 0001006 197.4176 234.8315  1.00269150  2445
Source of the keplerian elements: AFSPC